Regional Weather Roundup
Issued by NWS

Home | Current Version | Previous Version | Graphics & Text | Print | Product List | Glossary On
Versions: 1 2 3 4 5 6 7 8 9 10 11 12 13 14 15 16 17 18 19 20 21 22 23 24 25 26 27 28 29 30 31 32 33 34 35 36 37 38 39 40 41 42 43 44 45 46 47 48 49 50
000
ASUS43 KFSD 242102
RWRSD

WEATHER ROUNDUP FOR SOUTH DAKOTA
NATIONAL WEATHER SERVICE SIOUX FALLS SD
400 PM CDT FRI APR 24 2015

NOTE: "FAIR" INDICATES FEW OR NO CLOUDS BELOW 12,000 FEET WITH NO
SIGNIFICANT WEATHER AND/OR OBSTRUCTIONS TO VISIBILITY.


SDZ001>005-009-010-012>017-242200-
NORTHWEST AND NORTH CENTRAL SOUTH DAKOTA

CITY           SKY/WX    TMP DP  RH WIND       PRES   REMARKS
BUFFALO          N/A     69  31  24 E8        29.53F
FAITH            N/A     72  32  23 NE16      29.56F
MOBRIDGE       MOSUNNY   73  44  35 N13G22    29.54F
$$

SDZ012>016-024>037-041>051-057-063-072>074-242200-
SOUTHWEST AND SOUTH CENTRAL SOUTH DAKOTA

CITY           SKY/WX    TMP DP  RH WIND       PRES   REMARKS
RAPID CTY ARPT CLOUDY    61  44  53 W13       29.57F
PIERRE         SUNNY     75  46  35 N10       29.49F
CUSTER         LGT RAIN  43  40  89 NW3       29.67F
ELLSWORTH AFB  CLOUDY    65  40  39 E7        29.57F
PHILIP         MOSUNNY   73  44  35 NE15G22   29.51F
PINE RIDGE     CLOUDY    67  41  38 N8        29.55F
WINNER         FAIR      79  40  24 NE5       29.49F
$$

SDZ004>011-016>023-039-040-242200-
NORTHEAST SOUTH DAKOTA

CITY           SKY/WX    TMP DP  RH WIND       PRES   REMARKS
ABERDEEN       LGT RAIN  63  49  60 E14       29.55F
WATERTOWN      MOSUNNY   67  45  45 E8G18     29.58F
BROOKINGS      PTSUNNY   66  48  52 SE15      29.59F
SISSETON         N/A     59  46  62 SE15G25   29.63S
$$

SDZ017-020-022-023-036>040-048>070-242200-
SOUTHEAST SOUTH DAKOTA

CITY           SKY/WX    TMP DP  RH WIND       PRES   REMARKS
SIOUX FALLS    CLOUDY    72  52  49 S16G24    29.54F
HURON          MOSUNNY   74  47  38 S8G21     29.50F
MITCHELL       MOSUNNY   79  48  33 SW10      29.48F
YANKTON        MOSUNNY   77  52  41 S17       29.50F
$$

ABBREVIATIONS USED IN REMARKS
   TC - TEMPERATURE IN CELSIUS
  WCI - WIND CHILL INDEX
   HX - HEAT INDEX
  VSB - VISIBILITY




USA.gov is the U.S. government's official web portal to all federal, state and local government web resources and services.